Weather History for Shreveport Downtown, LA

Change the Weather History Date:

Monday, May 27, 2013

  Actual Average (KSHV) Record (KSHV)
Temperature  
Mean Temperature 78 °F 76 °F  
Max Temperature 88 °F 86 °F 97 °F (1886)
Min Temperature 69 °F 66 °F 47 °F (1961)
Degree Days  
Heating Degree Days 0 0  
Month to date heating degree days 5  
Since 1 July heating degree days 2224  
Cooling Degree Days 13 11  
Month to date cooling degree days 217  
Year to date cooling degree days 352  
Growing Degree Days 28 (Base 50)    
Moisture  
Dew Point 67 °F    
Average Humidity 72    
Maximum Humidity 94    
Minimum Humidity 48    
Precipitation  
Precipitation 0.00 in 0.17 in 2.38 in (2000)
Month to date precipitation 4.32  
Year to date precipitation 21.60  
Snow  
Snow 0.00 in - - ()
Month to date snowfall  
Since 1 July snowfall  
Snow Depth -    
Sea Level Pressure  
Sea Level Pressure 30.00 in    
Wind  
Wind Speed 9 mph (South)    
Max Wind Speed 17 mph    
Max Gust Speed 24 mph    
Visibility 9 miles    
Events      
T = Trace of Precipitation, MM = Missing Value Source: NWS Daily Summary

Daily Weather History Graph

Daily Weather History Graph

Search for Another Location

Airport:

Trip Planner

Search our weather history database for the weather conditions in past years. The results will help you decide how hot, cold, wet, or windy it might be!

Date:

Astronomy

May. 27, 2013 Rise Set
Actual Time 6:09 AM CDT 8:14 PM CDT
Civil Twilight 5:42 AM CDT 8:42 PM CDT
Nautical Twilight 5:08 AM CDT 9:16 PM CDT
Astronomical Twilight 4:32 AM CDT 9:52 PM CDT
Moon 10:58 PM CDT (5/27) 8:45 AM CDT (5/27)
Length of Visible Light 15h 00m
Length of Day
14h 04m
Waning Gibbous, 91% of the Moon is Illuminated
May 27
Waning Gibbous
May 31
Last Quarter
Jun 8
New
Jun 16
First Quarter
Jun 23
Full

Hourly Weather History & Observations

Time (CDT) Temp. Heat Index Dew Point Humidity Pressure Visibility Wind Dir Wind Speed Gust Speed Precip Events Conditions
12:53 AM 73.0 °F - 66.0 °F 79% 30.05 in 10.0 mi SSE 5.8 mph - N/A   Clear
1:53 AM 72.0 °F - 66.9 °F 84% 30.04 in 10.0 mi SSE 9.2 mph - N/A   Clear
2:53 AM 72.0 °F - 68.0 °F 87% 30.03 in 10.0 mi South 6.9 mph - N/A   Clear
3:53 AM 71.1 °F - 68.0 °F 90% 30.01 in 10.0 mi South 8.1 mph - N/A   Clear
4:29 AM 69.8 °F - 68.0 °F 94% 30.02 in 9.0 mi SSE 4.6 mph - N/A   Partly Cloudy
4:53 AM 70.0 °F - 68.0 °F 93% 30.01 in 8.0 mi SE 4.6 mph - N/A   Partly Cloudy
5:53 AM 69.1 °F - 66.9 °F 93% 30.04 in 7.0 mi SSE 4.6 mph - N/A   Mostly Cloudy
6:01 AM 69.8 °F - 66.2 °F 88% 30.04 in 7.0 mi SSE 5.8 mph - N/A   Mostly Cloudy
6:53 AM 70.0 °F - 68.0 °F 93% 30.05 in 5.0 mi SSE 6.9 mph - N/A   Overcast
7:53 AM 71.1 °F - 69.1 °F 93% 30.06 in 5.0 mi South 9.2 mph - N/A   Overcast
8:53 AM 73.0 °F - 69.1 °F 87% 30.06 in 6.0 mi SSE 9.2 mph - N/A   Overcast
9:22 AM 73.4 °F - 69.8 °F 88% 30.06 in 9.0 mi South 12.7 mph 18.4 mph N/A   Overcast
9:53 AM 77.0 °F - 69.1 °F 76% 30.06 in 9.0 mi South 10.4 mph - N/A   Overcast
10:15 AM 78.8 °F - 69.8 °F 74% 30.06 in 10.0 mi South 17.3 mph 23.0 mph N/A   Mostly Cloudy
10:53 AM 80.1 °F 82.3 °F 66.9 °F 64% 30.05 in 10.0 mi South 16.1 mph - N/A   Mostly Cloudy
11:53 AM 81.0 °F 83.0 °F 66.0 °F 60% 30.04 in 10.0 mi SSW 11.5 mph - N/A   Mostly Cloudy
12:53 PM 82.0 °F 83.8 °F 64.9 °F 56% 30.03 in 10.0 mi SSW 12.7 mph - N/A   Mostly Cloudy
1:53 PM 84.9 °F 86.6 °F 64.9 °F 51% 29.99 in 10.0 mi South 12.7 mph 24.2 mph N/A   Scattered Clouds
2:53 PM 87.1 °F 89.2 °F 66.0 °F 49% 29.97 in 10.0 mi South 9.2 mph 23.0 mph N/A   Mostly Cloudy
3:53 PM 87.1 °F 88.9 °F 64.9 °F 48% 29.96 in 10.0 mi SSW 11.5 mph 20.7 mph N/A   Scattered Clouds
4:53 PM 87.1 °F 89.2 °F 66.0 °F 49% 29.94 in 10.0 mi South 10.4 mph - N/A   Scattered Clouds
5:53 PM 86.0 °F 88.2 °F 66.0 °F 51% 29.92 in 10.0 mi South 12.7 mph 17.3 mph N/A   Scattered Clouds
6:53 PM 82.9 °F 85.0 °F 66.0 °F 56% 29.91 in 10.0 mi SSE 13.8 mph - N/A   Clear
7:53 PM 82.0 °F 83.8 °F 64.9 °F 56% 29.91 in 10.0 mi SSE 12.7 mph - N/A   Clear
8:53 PM 81.0 °F 82.5 °F 64.0 °F 56% 29.91 in 10.0 mi South 13.8 mph - N/A   Clear
9:53 PM 79.0 °F - 64.0 °F 60% 29.94 in 10.0 mi South 10.4 mph - N/A   Clear
10:53 PM 77.0 °F - 64.9 °F 66% 29.96 in 10.0 mi South 10.4 mph - N/A   Clear
11:53 PM 75.9 °F - 66.0 °F 71% 29.96 in 10.0 mi South 12.7 mph 19.6 mph N/A   Clear